| time (UTC) | temp C | wind direction | speed KPH | gust KPH | rain 1hr cm | rain 24hr cm | rain mn cm | humidity % | barometer mb |
| 20260510022132 | 19 | 286 | 3.2 | 8.0 | 0.00 | 0.46 | 0.46 | 57 | 1008.9 |
| 20260510021604 | 19 | 286 | 3.2 | 8.0 | 0.00 | 0.46 | 0.46 | 57 | 1008.9 |
| 20260510021552 | 20 | 286 | 3.2 | 8.0 | 0.00 | 0.46 | 0.46 | 56 | 1008.6 |
| 20260510021512 | 19 | 286 | 1.6 | 8.0 | 0.00 | 0.46 | 0.46 | 57 | 1008.5 |
| 20260510020536 | 20 | 286 | 3.2 | 6.4 | 0.00 | 0.46 | 0.46 | 56 | 1008.7 |
| 20260510020232 | 20 | 286 | 3.2 | 11.3 | 0.00 | 0.46 | 0.46 | 55 | 1008.5 |
| 20260510020026 | 19 | 286 | 0.0 | 9.7 | 0.00 | 0.46 | 0.46 | 55 | 1008.2 |
| 20260510015506 | 20 | 286 | 3.2 | 11.3 | 0.00 | 0.46 | 0.46 | 56 | 1008.5 |
| 20260510014937 | 20 | 287 | 3.2 | 12.9 | 0.00 | 0.46 | 0.46 | 56 | 1008.4 |
| 20260510014516 | 19 | 286 | 3.2 | 12.9 | 0.00 | 0.46 | 0.46 | 56 | 1008.0 |
| 20260510014435 | 20 | 286 | 3.2 | 12.9 | 0.00 | 0.46 | 0.46 | 55 | 1008.3 |
| 20260510013933 | 20 | 286 | 3.2 | 8.0 | 0.00 | 0.46 | 0.46 | 56 | 1008.2 |
| 20260510013403 | 20 | 287 | 3.2 | 8.0 | 0.00 | 0.46 | 0.46 | 55 | 1008.1 |
| 20260510013049 | 20 | 288 | 3.2 | 9.7 | 0.00 | 0.46 | 0.46 | 55 | 1007.8 |
| 20260510012900 | 20 | 286 | 3.2 | 11.3 | 0.00 | 0.46 | 0.46 | 55 | 1008.0 |
| 20260510012335 | 20 | 286 | 3.2 | 11.3 | 0.00 | 0.46 | 0.46 | 55 | 1007.8 |
| 20260510011806 | 20 | 287 | 3.2 | 11.3 | 0.00 | 0.46 | 0.46 | 55 | 1007.9 |
| 20260510011606 | 20 | 287 | 1.6 | 9.7 | 0.00 | 0.46 | 0.46 | 55 | 1007.7 |
| 20260510011528 | 20 | 286 | 3.2 | 11.3 | 0.00 | 0.46 | 0.46 | 55 | 1007.9 |
| 20260510011000 | 20 | 288 | 3.2 | 11.3 | 0.00 | 0.46 | 0.46 | 54 | 1007.8 |
| 20260510010233 | 20 | 287 | 3.2 | 11.3 | 0.00 | 0.46 | 0.46 | 54 | 1007.8 |
| 20260510010008 | 20 | 287 | 3.2 | 9.7 | 0.00 | 0.46 | 0.46 | 54 | 1007.4 |
| 20260510005710 | 20 | 286 | 3.2 | 8.0 | 0.00 | 0.46 | 0.46 | 54 | 1007.6 |
| 20260510005155 | 21 | 286 | 3.2 | 8.0 | 0.00 | 0.46 | 0.46 | 53 | 1007.6 |
| 20260510004658 | 21 | 288 | 3.2 | 8.0 | 0.00 | 0.46 | 0.46 | 53 | 1007.4 |
| 20260510004518 | 21 | 288 | 3.2 | 8.0 | 0.00 | 0.46 | 0.46 | 53 | 1007.2 |
| 20260510004130 | 21 | 158 | 3.2 | 11.3 | 0.00 | 0.46 | 0.46 | 52 | 1007.4 |
| 20260510003631 | 21 | 194 | 3.2 | 11.3 | 0.00 | 0.46 | 0.46 | 51 | 1007.4 |
| 20260510003059 | 21 | 161 | 4.8 | 14.5 | 0.00 | 0.46 | 0.46 | 51 | 1007.2 |
| 20260510003021 | 21 | 160 | 3.2 | 14.5 | 0.00 | 0.46 | 0.46 | 51 | 1007.0 |
| 20260510002558 | 21 | 142 | 4.8 | 14.5 | 0.00 | 0.46 | 0.46 | 51 | 1007.2 |
| 20260510002034 | 21 | 189 | 4.8 | 14.5 | 0.00 | 0.46 | 0.46 | 51 | 1007.1 |
| 20260510001546 | 21 | 137 | 3.2 | 14.5 | 0.00 | 0.46 | 0.46 | 49 | 1006.7 |
| 20260510001529 | 22 | 137 | 4.8 | 14.5 | 0.00 | 0.46 | 0.46 | 49 | 1007.0 |
| 20260510001027 | 22 | 165 | 6.4 | 20.9 | 0.00 | 0.46 | 0.46 | 49 | 1007.0 |
| 20260510000458 | 22 | 167 | 6.4 | 20.9 | 0.00 | 0.46 | 0.46 | 49 | 1006.9 |
| 20260510000043 | 22 | 203 | 8.0 | 20.9 | 0.00 | 0.46 | 0.46 | 47 | 1006.5 |
| 20260509235958 | 22 | 142 | 6.4 | 20.9 | 0.00 | 0.46 | 0.46 | 47 | 1006.9 |
| 20260509235453 | 22 | 116 | 6.4 | 22.5 | 0.00 | 0.46 | 0.46 | 48 | 1006.8 |
| 20260509235208 | 22 | 157 | 6.4 | 22.5 | 0.00 | 0.46 | 0.46 | 47 | 1006.7 |
| 20260509234553 | 22 | 132 | 6.4 | 22.5 | 0.00 | 0.46 | 0.46 | 46 | 1006.4 |
| 20260509234422 | 22 | 97 | 8.0 | 25.7 | 0.00 | 0.46 | 0.46 | 46 | 1006.7 |
| 20260509233917 | 23 | 100 | 9.7 | 25.7 | 0.00 | 0.46 | 0.46 | 46 | 1006.7 |
| 20260509233418 | 23 | 82 | 8.0 | 24.1 | 0.00 | 0.46 | 0.46 | 46 | 1006.6 |
| 20260509233015 | 22 | 140 | 8.0 | 22.5 | 0.00 | 0.46 | 0.46 | 46 | 1006.3 |
| 20260509232851 | 23 | 182 | 6.4 | 16.1 | 0.00 | 0.46 | 0.46 | 47 | 1006.6 |
| 20260509232346 | 23 | 132 | 8.0 | 19.3 | 0.00 | 0.46 | 0.46 | 47 | 1006.6 |
| 20260509231819 | 23 | 226 | 8.0 | 20.9 | 0.00 | 0.46 | 0.46 | 46 | 1006.5 |
| 20260509231513 | 23 | 153 | 9.7 | 24.1 | 0.00 | 0.46 | 0.46 | 46 | 1006.2 |
| 20260509231318 | 23 | 205 | 8.0 | 24.1 | 0.00 | 0.46 | 0.46 | 46 | 1006.5 |
| 20260509230753 | 23 | 246 | 9.7 | 24.1 | 0.00 | 0.46 | 0.46 | 46 | 1006.5 |
| 20260509230254 | 23 | 185 | 8.0 | 24.1 | 0.00 | 0.46 | 0.46 | 46 | 1006.4 |
| 20260509230007 | 23 | 114 | 11.3 | 24.1 | 0.00 | 0.46 | 0.46 | 46 | 1006.1 |
| 20260509225733 | 23 | 174 | 8.0 | 19.3 | 0.00 | 0.46 | 0.46 | 47 | 1006.4 |
| 20260509225235 | 23 | 145 | 6.4 | 19.3 | 0.00 | 0.46 | 0.46 | 47 | 1006.4 |
| 20260509224712 | 23 | 103 | 8.0 | 22.5 | 0.00 | 0.46 | 0.46 | 47 | 1006.4 |
| 20260509224509 | 23 | 180 | 4.8 | 22.5 | 0.00 | 0.46 | 0.46 | 47 | 1006.1 |
| 20260509224209 | 23 | 214 | 9.7 | 24.1 | 0.00 | 0.46 | 0.46 | 47 | 1006.4 |
| 20260509223915 | 23 | 124 | 11.3 | 24.1 | 0.00 | 0.46 | 0.46 | 47 | 1006.4 |
| 20260509223153 | 23 | 118 | 11.3 | 30.6 | 0.00 | 0.46 | 0.46 | 46 | 1006.4 |
| 20260509223018 | 23 | 132 | 9.7 | 30.6 | 0.00 | 0.46 | 0.46 | 47 | 1006.1 |
| 20260509222629 | 23 | 97 | 9.7 | 30.6 | 0.00 | 0.46 | 0.46 | 47 | 1006.4 |
| 20260509222336 | 23 | 136 | 8.0 | 22.5 | 0.00 | 0.46 | 0.46 | 48 | 1006.4 |
| 20260509221539 | 23 | 207 | 9.7 | 24.1 | 0.00 | 0.46 | 0.46 | 49 | 1006.3 |
| 20260509221509 | 23 | 121 | 9.7 | 24.1 | 0.00 | 0.46 | 0.46 | 47 | 1006.4 |
| 20260509220519 | 23 | 115 | 9.7 | 30.6 | 0.00 | 0.46 | 0.46 | 47 | 1006.3 |
| 20260509220048 | 23 | 121 | 8.0 | 30.6 | 0.00 | 0.46 | 0.46 | 48 | 1006.1 |
| 20260509220019 | 23 | 119 | 9.7 | 30.6 | 0.00 | 0.46 | 0.46 | 48 | 1006.4 |
| 20260509215517 | 23 | 132 | 11.3 | 24.1 | 0.00 | 0.46 | 0.46 | 48 | 1006.4 |
| 20260509215019 | 23 | 156 | 9.7 | 19.3 | 0.00 | 0.46 | 0.46 | 48 | 1006.4 |
| 20260509214522 | 23 | 84 | 8.0 | 24.1 | 0.00 | 0.46 | 0.46 | 49 | 1006.2 |
| 20260509214505 | 23 | 102 | 9.7 | 24.1 | 0.00 | 0.46 | 0.46 | 49 | 1006.5 |
| 20260509214005 | 23 | 159 | 11.3 | 32.2 | 0.00 | 0.46 | 0.46 | 49 | 1006.4 |
| 20260509213506 | 23 | 99 | 11.3 | 32.2 | 0.00 | 0.46 | 0.46 | 48 | 1006.5 |
| 20260509213021 | 23 | 95 | 12.9 | 27.4 | 0.00 | 0.46 | 0.46 | 47 | 1006.3 |
| 20260509212947 | 23 | 90 | 11.3 | 27.4 | 0.00 | 0.46 | 0.46 | 47 | 1006.4 |
| 20260509212438 | 23 | 192 | 11.3 | 22.5 | 0.00 | 0.46 | 0.46 | 46 | 1006.5 |
| 20260509211541 | 23 | 111 | 9.7 | 20.9 | 0.00 | 0.46 | 0.46 | 48 | 1006.3 |
| 20260509211421 | 23 | 71 | 9.7 | 20.9 | 0.00 | 0.46 | 0.46 | 48 | 1006.5 |
| 20260509211147 | 23 | 107 | 9.7 | 19.3 | 0.00 | 0.46 | 0.46 | 47 | 1006.6 |
| 20260509210423 | 23 | 106 | 9.7 | 25.7 | 0.00 | 0.46 | 0.46 | 49 | 1006.5 |
| 20260509205900 | 23 | 111 | 9.7 | 25.7 | 0.00 | 0.46 | 0.46 | 48 | 1006.6 |
| 20260509205349 | 23 | 129 | 8.0 | 22.5 | 0.00 | 0.46 | 0.46 | 49 | 1006.6 |
| 20260509204847 | 23 | 220 | 8.0 | 22.5 | 0.00 | 0.46 | 0.46 | 48 | 1006.6 |
| 20260509204531 | 23 | 95 | 9.7 | 22.5 | 0.00 | 0.46 | 0.46 | 49 | 1006.4 |
| 20260509204346 | 23 | 138 | 8.0 | 32.2 | 0.00 | 0.46 | 0.46 | 49 | 1006.6 |
| 20260509203820 | 23 | 144 | 8.0 | 32.2 | 0.00 | 0.46 | 0.46 | 47 | 1006.7 |
| 20260509203319 | 23 | 104 | 8.0 | 20.9 | 0.00 | 0.46 | 0.46 | 49 | 1006.7 |
| 20260509203055 | 22 | 205 | 8.0 | 19.3 | 0.00 | 0.46 | 0.46 | 52 | 1006.5 |
| 20260509202757 | 22 | 183 | 8.0 | 25.7 | 0.00 | 0.46 | 0.46 | 50 | 1006.8 |
| 20260509202236 | 22 | 141 | 6.4 | 25.7 | 0.00 | 0.46 | 0.46 | 54 | 1006.9 |
| 20260509201715 | 22 | 138 | 8.0 | 17.7 | 0.00 | 0.46 | 0.46 | 53 | 1006.9 |
| 20260509201533 | 22 | 88 | 4.8 | 17.7 | 0.00 | 0.46 | 0.46 | 51 | 1006.6 |
| 20260509201151 | 22 | 118 | 11.3 | 22.5 | 0.00 | 0.46 | 0.46 | 52 | 1006.9 |
| 20260509200655 | 22 | 118 | 9.7 | 22.5 | 0.00 | 0.46 | 0.46 | 50 | 1007.0 |
| 20260509200131 | 22 | 173 | 11.3 | 22.5 | 0.00 | 0.46 | 0.46 | 54 | 1007.1 |
| 20260509200105 | 22 | 153 | 6.4 | 22.5 | 0.00 | 0.46 | 0.46 | 54 | 1006.9 |
| 20260509195604 | 22 | 62 | 9.7 | 22.5 | 0.00 | 0.46 | 0.46 | 53 | 1007.0 |
| 20260509195040 | 22 | 140 | 9.7 | 19.3 | 0.00 | 0.46 | 0.46 | 53 | 1007.1 |
| 20260509194543 | 22 | 105 | 9.7 | 19.3 | 0.00 | 0.46 | 0.46 | 54 | 1007.2 |
| 20260509194517 | 21 | 96 | 8.0 | 17.7 | 0.00 | 0.46 | 0.46 | 54 | 1006.9 |
| 20260509194238 | 21 | 137 | 8.0 | 19.3 | 0.00 | 0.46 | 0.46 | 55 | 1007.3 |
| 20260509193516 | 22 | 147 | 9.7 | 27.4 | 0.00 | 0.46 | 0.46 | 56 | 1007.4 |
| 20260509193029 | 21 | 102 | 4.8 | 27.4 | 0.00 | 0.46 | 0.46 | 58 | 1007.2 |
| 20260509193011 | 21 | 66 | 9.7 | 27.4 | 0.00 | 0.46 | 0.46 | 58 | 1007.4 |
| 20260509192513 | 21 | 97 | 8.0 | 17.7 | 0.00 | 0.46 | 0.46 | 56 | 1007.4 |
| 20260509191951 | 21 | 95 | 9.7 | 20.9 | 0.00 | 0.46 | 0.46 | 57 | 1007.5 |
| 20260509191514 | 21 | 88 | 9.7 | 20.9 | 0.00 | 0.46 | 0.46 | 56 | 1007.3 |
| 20260509191430 | 21 | 63 | 9.7 | 20.9 | 0.00 | 0.46 | 0.46 | 56 | 1007.6 |
| 20260509190909 | 21 | 120 | 8.0 | 17.7 | 0.00 | 0.46 | 0.46 | 57 | 1007.6 |
| 20260509190339 | 21 | 150 | 8.0 | 19.3 | 0.00 | 0.46 | 0.46 | 59 | 1007.6 |
| 20260509190008 | 21 | 116 | 6.4 | 19.3 | 0.00 | 0.46 | 0.46 | 57 | 1007.5 |
| 20260509185814 | 21 | 197 | 8.0 | 17.7 | 0.00 | 0.46 | 0.46 | 58 | 1007.7 |
| 20260509185307 | 21 | 130 | 6.4 | 16.1 | 0.00 | 0.46 | 0.46 | 61 | 1007.7 |
| 20260509184806 | 21 | 120 | 6.4 | 16.1 | 0.00 | 0.46 | 0.46 | 58 | 1007.7 |
| 20260509184553 | 21 | 103 | 4.8 | 16.1 | 0.00 | 0.46 | 0.46 | 63 | 1007.5 |
| 20260509184306 | 21 | 95 | 6.4 | 12.9 | 0.00 | 0.46 | 0.46 | 60 | 1007.7 |
| 20260509183801 | 21 | 219 | 6.4 | 17.7 | 0.00 | 0.46 | 0.46 | 61 | 1007.6 |
| 20260509183257 | 20 | 146 | 6.4 | 17.7 | 0.00 | 0.46 | 0.46 | 62 | 1007.7 |
| 20260509183055 | 20 | 154 | 4.8 | 17.7 | 0.00 | 0.46 | 0.46 | 62 | 1007.5 |
| 20260509182753 | 20 | 62 | 8.0 | 24.1 | 0.00 | 0.46 | 0.46 | 62 | 1007.7 |
| 20260509182229 | 20 | 135 | 6.4 | 22.5 | 0.00 | 0.46 | 0.46 | 62 | 1007.8 |
| 20260509181724 | 20 | 166 | 8.0 | 14.5 | 0.00 | 0.46 | 0.46 | 63 | 1007.8 |
| 20260509181555 | 20 | 123 | 6.4 | 17.7 | 0.00 | 0.46 | 0.46 | 64 | 1007.6 |
| 20260509181159 | 20 | 201 | 8.0 | 27.4 | 0.00 | 0.46 | 0.46 | 65 | 1007.9 |
| 20260509180631 | 20 | 161 | 8.0 | 22.5 | 0.00 | 0.46 | 0.46 | 61 | 1007.8 |
| 20260509180118 | 20 | 134 | 8.0 | 22.5 | 0.00 | 0.46 | 0.46 | 61 | 1007.8 |
| 20260509180038 | 20 | 140 | 9.7 | 22.5 | 0.00 | 0.46 | 0.46 | 62 | 1007.7 |
| 20260509175619 | 20 | 137 | 8.0 | 17.7 | 0.00 | 0.46 | 0.46 | 63 | 1007.8 |
| 20260509175119 | 20 | 94 | 8.0 | 17.7 | 0.00 | 0.46 | 0.46 | 67 | 1007.8 |
| 20260509174552 | 20 | 134 | 8.0 | 17.7 | 0.00 | 0.46 | 0.46 | 63 | 1007.7 |
| 20260509174528 | 20 | 128 | 8.0 | 17.7 | 0.00 | 0.46 | 0.46 | 63 | 1007.5 |
| 20260509174045 | 20 | 111 | 8.0 | 22.5 | 0.00 | 0.46 | 0.46 | 64 | 1007.8 |
| 20260509173521 | 20 | 138 | 8.0 | 20.9 | 0.00 | 0.46 | 0.46 | 64 | 1007.7 |
| 20260509173045 | 19 | 108 | 8.0 | 20.9 | 0.00 | 0.46 | 0.46 | 62 | 1007.6 |
| 20260509172955 | 20 | 169 | 6.4 | 20.9 | 0.00 | 0.46 | 0.46 | 64 | 1007.9 |
| 20260509172451 | 20 | 111 | 6.4 | 19.3 | 0.00 | 0.46 | 0.46 | 65 | 1008.0 |
| 20260509171949 | 20 | 107 | 6.4 | 19.3 | 0.00 | 0.46 | 0.46 | 65 | 1007.9 |
| 20260509171526 | 19 | 115 | 4.8 | 19.3 | 0.00 | 0.46 | 0.46 | 64 | 1007.7 |
| 20260509171447 | 19 | 192 | 8.0 | 19.3 | 0.00 | 0.46 | 0.46 | 63 | 1007.9 |
| 20260509170919 | 19 | 142 | 8.0 | 17.7 | 0.00 | 0.46 | 0.46 | 66 | 1008.0 |
| 20260509170417 | 19 | 161 | 8.0 | 17.7 | 0.00 | 0.46 | 0.46 | 66 | 1008.0 |
| 20260509170017 | 18 | 158 | 8.0 | 17.7 | 0.00 | 0.46 | 0.46 | 67 | 1007.8 |
| 20260509165905 | 19 | 216 | 6.4 | 19.3 | 0.00 | 0.46 | 0.46 | 67 | 1008.1 |
| 20260509165406 | 19 | 154 | 6.4 | 19.3 | 0.00 | 0.46 | 0.46 | 68 | 1008.1 |
| 20260509164902 | 19 | 199 | 8.0 | 19.3 | 0.00 | 0.46 | 0.46 | 70 | 1008.2 |
| 20260509164550 | 18 | 149 | 6.4 | 19.3 | 0.00 | 0.46 | 0.46 | 68 | 1007.9 |
| 20260509164401 | 19 | 116 | 8.0 | 19.3 | 0.00 | 0.46 | 0.46 | 68 | 1008.2 |
| 20260509163835 | 18 | 186 | 6.4 | 19.3 | 0.00 | 0.46 | 0.46 | 71 | 1008.2 |
| 20260509163308 | 18 | 136 | 6.4 | 19.3 | 0.00 | 0.46 | 0.46 | 70 | 1008.3 |
| 20260509163104 | 18 | 146 | 4.8 | 16.1 | 0.00 | 0.46 | 0.46 | 71 | 1008.1 |
| 20260509162811 | 18 | 61 | 6.4 | 16.1 | 0.00 | 0.46 | 0.46 | 73 | 1008.2 |
| 20260509162258 | 18 | 142 | 6.4 | 14.5 | 0.00 | 0.46 | 0.46 | 75 | 1008.2 |
| 20260509161757 | 17 | 73 | 8.0 | 19.3 | 0.00 | 0.46 | 0.46 | 76 | 1008.2 |
| 20260509161524 | 17 | 76 | 4.8 | 17.7 | 0.00 | 0.46 | 0.46 | 76 | 1007.9 |
| 20260509161451 | 17 | 93 | 8.0 | 19.3 | 0.00 | 0.46 | 0.46 | 76 | 1008.1 |
| 20260509160700 | 17 | 161 | 8.0 | 16.1 | 0.00 | 0.46 | 0.46 | 77 | 1008.1 |
| 20260509160159 | 17 | 82 | 8.0 | 16.1 | 0.00 | 0.46 | 0.46 | 75 | 1008.0 |
| 20260509160020 | 17 | 86 | 9.7 | 17.7 | 0.00 | 0.46 | 0.46 | 75 | 1007.8 |
| 20260509155630 | 17 | 124 | 6.4 | 19.3 | 0.00 | 0.46 | 0.46 | 75 | 1007.9 |
| 20260509155355 | 18 | 161 | 6.4 | 19.3 | 0.00 | 0.46 | 0.46 | 74 | 1007.9 |
| 20260509154603 | 18 | 44 | 8.0 | 16.1 | 0.00 | 0.46 | 0.46 | 77 | 1007.9 |
| 20260509154535 | 17 | 51 | 8.0 | 16.1 | 0.00 | 0.46 | 0.46 | 77 | 1007.7 |
| 20260509154036 | 18 | 93 | 6.4 | 14.5 | 0.00 | 0.46 | 0.46 | 75 | 1007.8 |
| 20260509153751 | 17 | 140 | 6.4 | 16.1 | 0.00 | 0.46 | 0.46 | 77 | 1007.8 |
| 20260509153506 | 17 | 89 | 6.4 | 16.1 | 0.00 | 0.46 | 0.46 | 79 | 1007.7 |
| 20260509153100 | 17 | 93 | 3.2 | 14.5 | 0.00 | 0.46 | 0.46 | 79 | 1007.5 |
| 20260509152526 | 17 | 120 | 4.8 | 14.5 | 0.00 | 0.46 | 0.46 | 78 | 1007.8 |
| 20260509152004 | 17 | 125 | 6.4 | 14.5 | 0.00 | 0.46 | 0.46 | 81 | 1007.9 |
| 20260509151600 | 17 | 159 | 4.8 | 14.5 | 0.00 | 0.46 | 0.46 | 82 | 1007.8 |
| 20260509151432 | 17 | 199 | 4.8 | 14.5 | 0.00 | 0.46 | 0.46 | 80 | 1007.9 |
| 20260509150933 | 16 | 153 | 6.4 | 16.1 | 0.00 | 0.46 | 0.46 | 82 | 1007.8 |
| 20260509150402 | 16 | 87 | 8.0 | 16.1 | 0.00 | 0.46 | 0.46 | 83 | 1007.8 |
| 20260509150051 | 16 | 99 | 6.4 | 14.5 | 0.00 | 0.46 | 0.46 | 82 | 1007.5 |
| 20260509145858 | 16 | 52 | 8.0 | 14.5 | 0.00 | 0.46 | 0.46 | 83 | 1007.7 |
| 20260509145355 | 16 | 87 | 8.0 | 14.5 | 0.00 | 0.46 | 0.46 | 84 | 1007.7 |
| 20260509144830 | 15 | 143 | 8.0 | 16.1 | 0.00 | 0.46 | 0.46 | 86 | 1007.7 |
| 20260509144540 | 15 | 95 | 8.0 | 16.1 | 0.00 | 0.46 | 0.46 | 86 | 1007.5 |
| 20260509144520 | 15 | 118 | 6.4 | 14.5 | 0.00 | 0.46 | 0.46 | 86 | 1007.7 |
| 20260509143801 | 15 | 86 | 8.0 | 14.5 | 0.00 | 0.46 | 0.46 | 89 | 1007.6 |
| 20260509143235 | 15 | 93 | 6.4 | 12.9 | 0.00 | 0.46 | 0.46 | 89 | 1007.7 |
| 20260509143055 | 15 | 129 | 6.4 | 12.9 | 0.00 | 0.46 | 0.46 | 90 | 1007.5 |
| 20260509142705 | 15 | 121 | 4.8 | 9.7 | 0.00 | 0.46 | 0.46 | 92 | 1007.6 |
| 20260509142203 | 15 | 88 | 4.8 | 11.3 | 0.00 | 0.46 | 0.46 | 92 | 1007.6 |
| 20260509141659 | 14 | 141 | 6.4 | 11.3 | 0.00 | 0.46 | 0.46 | 92 | 1007.6 |
| 20260509141607 | 14 | 132 | 4.8 | 11.3 | 0.00 | 0.46 | 0.46 | 92 | 1007.4 |
| 20260509141159 | 14 | 127 | 6.4 | 14.5 | 0.00 | 0.46 | 0.46 | 92 | 1007.6 |
| 20260509140653 | 14 | 153 | 4.8 | 14.5 | 0.00 | 0.46 | 0.46 | 93 | 1007.6 |
| 20260509140630 | 15 | 172 | 4.8 | 11.3 | 0.00 | 0.46 | 0.46 | 94 | 1007.7 |
| 20260509140026 | 14 | 144 | 4.8 | 9.7 | 0.00 | 0.46 | 0.46 | 94 | 1007.5 |
| 20260509135626 | 15 | 158 | 3.2 | 8.0 | 0.00 | 0.46 | 0.46 | 94 | 1007.7 |
| 20260509135120 | 15 | 121 | 3.2 | 8.0 | 0.00 | 0.46 | 0.46 | 95 | 1007.7 |
| 20260509135056 | 14 | 97 | 4.8 | 14.5 | 0.00 | 0.46 | 0.46 | 95 | 1007.7 |
| 20260509134549 | 14 | 97 | 1.6 | 14.5 | 0.00 | 0.46 | 0.46 | 95 | 1007.6 |
| 20260509134051 | 14 | 138 | 4.8 | 14.5 | 0.00 | 0.46 | 0.46 | 95 | 1007.8 |
| 20260509133548 | 14 | 124 | 4.8 | 11.3 | 0.00 | 0.46 | 0.46 | 95 | 1007.7 |
| 20260509133034 | 13 | 145 | 4.8 | 9.7 | 0.00 | 0.46 | 0.46 | 96 | 1007.7 |
| 20260509133011 | 13 | 127 | 3.2 | 9.7 | 0.00 | 0.46 | 0.46 | 96 | 1007.6 |
| 20260509132508 | 13 | 132 | 3.2 | 9.7 | 0.00 | 0.46 | 0.46 | 96 | 1007.7 |
| 20260509132007 | 14 | 147 | 3.2 | 9.7 | 0.00 | 0.46 | 0.46 | 96 | 1007.5 |
| 20260509131545 | 13 | 124 | 3.2 | 8.0 | 0.00 | 0.46 | 0.46 | 96 | 1007.3 |
| 20260509131505 | 13 | 99 | 4.8 | 12.9 | 0.00 | 0.46 | 0.46 | 96 | 1007.5 |
| 20260509130947 | 13 | 99 | 4.8 | 12.9 | 0.00 | 0.46 | 0.46 | 96 | 1007.4 |
| 20260509130445 | 13 | 284 | 3.2 | 12.9 | 0.00 | 0.46 | 0.46 | 96 | 1007.5 |
| 20260509130057 | 12 | 286 | 3.2 | 12.9 | 0.00 | 0.46 | 0.46 | 96 | 1007.5 |
| 20260509125945 | 13 | 286 | 3.2 | 12.9 | 0.00 | 0.46 | 0.46 | 96 | 1007.6 |
| 20260509125448 | 13 | 284 | 3.2 | 11.3 | 0.00 | 0.46 | 0.46 | 96 | 1007.6 |
| 20260509124932 | 13 | 284 | 3.2 | 11.3 | 0.00 | 0.46 | 0.46 | 96 | 1007.5 |
| 20260509124656 | 13 | 273 | 3.2 | 9.7 | 0.00 | 0.46 | 0.46 | 96 | 1007.5 |
| 20260509124548 | 12 | 286 | 3.2 | 8.0 | 0.00 | 0.46 | 0.46 | 96 | 1007.3 |
| 20260509123927 | 12 | 288 | 3.2 | 12.9 | 0.00 | 0.46 | 0.46 | 96 | 1007.4 |
| 20260509123423 | 12 | 288 | 4.8 | 12.9 | 0.00 | 0.46 | 0.46 | 96 | 1007.4 |
| 20260509123144 | 12 | 287 | 4.8 | 11.3 | 0.00 | 0.46 | 0.46 | 96 | 1007.3 |
| 20260509123001 | 12 | 288 | 3.2 | 12.9 | 0.00 | 0.46 | 0.46 | 96 | 1007.1 |
| 20260509122640 | 12 | 288 | 3.2 | 11.3 | 0.00 | 0.46 | 0.46 | 95 | 1007.4 |
| 20260509121914 | 12 | 286 | 1.6 | 6.4 | 0.00 | 0.46 | 0.46 | 96 | 1007.5 |
| 20260509121540 | 12 | 286 | 1.6 | 8.0 | 0.00 | 0.46 | 0.46 | 96 | 1007.1 |
| 20260509121408 | 12 | 286 | 3.2 | 8.0 | 0.00 | 0.46 | 0.46 | 96 | 1007.1 |
| 20260509120905 | 12 | 287 | 1.6 | 8.0 | 0.00 | 0.46 | 0.46 | 96 | 1007.4 |
| 20260509120338 | 12 | 288 | 1.6 | 4.8 | 0.00 | 0.46 | 0.46 | 96 | 1007.5 |
| 20260509120029 | 12 | 289 | 0.0 | 4.8 | 0.00 | 0.46 | 0.46 | 96 | 1007.3 |
| 20260509115835 | 12 | 289 | 1.6 | 4.8 | 0.03 | 0.46 | 0.46 | 96 | 1007.4 |
| 20260509115331 | 12 | 289 | 0.0 | 4.8 | 0.03 | 0.46 | 0.46 | 96 | 1007.5 |
| 20260509115056 | 12 | 290 | 0.0 | 4.8 | 0.03 | 0.46 | 0.46 | 96 | 1007.6 |
| 20260509114606 | 12 | 291 | 0.0 | 4.8 | 0.03 | 0.46 | 0.46 | 95 | 1007.5 |
| 20260509114302 | 12 | 291 | 1.6 | 4.8 | 0.03 | 0.46 | 0.46 | 95 | 1007.6 |
| 20260509113801 | 12 | 273 | 1.6 | 4.8 | 0.03 | 0.46 | 0.46 | 95 | 1007.5 |
| 20260509113232 | 12 | 273 | 0.0 | 3.2 | 0.05 | 0.46 | 0.46 | 95 | 1007.3 |
| 20260509113218 | 12 | 273 | 1.6 | 4.8 | 0.05 | 0.46 | 0.46 | 95 | 1007.2 |
| 20260509113033 | 12 | 273 | 0.0 | 1.6 | 0.05 | 0.46 | 0.46 | 95 | 1007.1 |
| 20260509112207 | 12 | 273 | 1.6 | 4.8 | 0.05 | 0.46 | 0.46 | 95 | 1007.0 |
| 20260509111636 | 12 | 273 | 1.6 | 4.8 | 0.05 | 0.46 | 0.46 | 95 | 1006.8 |
| 20260509111546 | 12 | 273 | 1.6 | 4.8 | 0.05 | 0.46 | 0.46 | 95 | 1006.6 |
| 20260509111135 | 12 | 273 | 0.0 | 1.6 | 0.08 | 0.46 | 0.46 | 95 | 1007.0 |
| 20260509110611 | 12 | 273 | 0.0 | 3.2 | 0.08 | 0.46 | 0.46 | 95 | 1007.2 |
| 20260509110042 | 12 | 273 | 0.0 | 3.2 | 0.08 | 0.43 | 0.43 | 95 | 1007.3 |
| 20260509105801 | 12 | 273 | 0.0 | 0.0 | 0.08 | 0.43 | 0.43 | 95 | 1007.5 |
| 20260509105013 | 12 | 273 | 0.0 | 0.0 | 0.08 | 0.43 | 0.43 | 95 | 1007.5 |
| 20260509104503 | 12 | 273 | 0.0 | 0.0 | 0.10 | 0.43 | 0.43 | 95 | 1007.3 |
| 20260509104444 | 12 | 273 | 0.0 | 0.0 | 0.10 | 0.43 | 0.43 | 95 | 1007.5 |
| 20260509103943 | 12 | 273 | 0.0 | 0.0 | 0.10 | 0.43 | 0.43 | 95 | 1007.6 |
| 20260509103417 | 12 | 273 | 0.0 | 3.2 | 0.08 | 0.41 | 0.41 | 95 | 1007.8 |
| 20260509103038 | 12 | 273 | 0.0 | 3.2 | 0.10 | 0.41 | 0.41 | 95 | 1007.8 |
| 20260509102849 | 12 | 273 | 0.0 | 3.2 | 0.10 | 0.41 | 0.41 | 95 | 1007.8 |
| 20260509102344 | 12 | 273 | 0.0 | 3.2 | 0.10 | 0.41 | 0.41 | 95 | 1007.7 |
| 20260509102111 | 12 | 273 | 0.0 | 3.2 | 0.10 | 0.41 | 0.41 | 95 | 1007.7 |
| 20260509101318 | 12 | 273 | 0.0 | 3.2 | 0.08 | 0.38 | 0.38 | 95 | 1007.7 |
| 20260509100819 | 12 | 273 | 0.0 | 1.6 | 0.08 | 0.38 | 0.38 | 95 | 1007.7 |
| 20260509100510 | 12 | 273 | 0.0 | 3.2 | 0.08 | 0.36 | 0.38 | 95 | 1007.8 |
| 20260509100006 | 12 | 273 | 0.0 | 3.2 | 0.08 | 0.36 | 0.36 | 95 | 1007.6 |
| 20260509095735 | 12 | 273 | 0.0 | 3.2 | 0.08 | 0.36 | 0.36 | 95 | 1007.8 |
| 20260509095232 | 12 | 273 | 0.0 | 3.2 | 0.08 | 0.36 | 0.36 | 95 | 1008.0 |
| 20260509094730 | 12 | 290 | 0.0 | 3.2 | 0.08 | 0.33 | 0.33 | 95 | 1008.0 |
| 20260509094531 | 12 | 290 | 0.0 | 1.6 | 0.08 | 0.33 | 0.33 | 95 | 1007.7 |
| 20260509094449 | 12 | 290 | 0.0 | 0.0 | 0.08 | 0.33 | 0.33 | 95 | 1007.8 |
| 20260509093703 | 12 | 290 | 0.0 | 0.0 | 0.08 | 0.33 | 0.33 | 95 | 1007.8 |
| 20260509093201 | 12 | 290 | 0.0 | 0.0 | 0.05 | 0.30 | 0.30 | 95 | 1007.8 |
| 20260509093021 | 12 | 290 | 0.0 | 0.0 | 0.05 | 0.30 | 0.30 | 95 | 1007.6 |
| 20260509092644 | 12 | 290 | 0.0 | 0.0 | 0.08 | 0.30 | 0.30 | 95 | 1007.8 |
| 20260509092146 | 12 | 290 | 0.0 | 0.0 | 0.08 | 0.30 | 0.30 | 95 | 1007.9 |
| 20260509091622 | 12 | 290 | 0.0 | 3.2 | 0.08 | 0.30 | 0.30 | 95 | 1007.9 |
| 20260509091532 | 12 | 290 | 0.0 | 3.2 | 0.08 | 0.30 | 0.30 | 95 | 1007.8 |
| 20260509091121 | 12 | 273 | 0.0 | 3.2 | 0.10 | 0.30 | 0.30 | 95 | 1008.0 |
| 20260509090556 | 12 | 273 | 0.0 | 3.2 | 0.10 | 0.30 | 0.30 | 95 | 1008.1 |
| 20260509090109 | 12 | 273 | 0.0 | 3.2 | 0.08 | 0.28 | 0.28 | 95 | 1008.1 |
| 20260509090051 | 12 | 273 | 0.0 | 3.2 | 0.08 | 0.28 | 0.28 | 95 | 1008.2 |
| 20260509085551 | 12 | 273 | 0.0 | 1.6 | 0.08 | 0.28 | 0.28 | 95 | 1008.3 |
| 20260509085030 | 12 | 273 | 0.0 | 3.2 | 0.10 | 0.28 | 0.28 | 95 | 1008.4 |
| 20260509084550 | 12 | 273 | 0.0 | 3.2 | 0.08 | 0.25 | 0.25 | 95 | 1008.3 |
| 20260509084509 | 12 | 273 | 0.0 | 3.2 | 0.08 | 0.25 | 0.25 | 95 | 1008.4 |
| 20260509083955 | 12 | 273 | 1.6 | 4.8 | 0.08 | 0.25 | 0.25 | 95 | 1008.5 |
| 20260509083456 | 12 | 273 | 1.6 | 4.8 | 0.08 | 0.25 | 0.25 | 95 | 1008.6 |
| 20260509083009 | 12 | 273 | 0.0 | 3.2 | 0.10 | 0.25 | 0.25 | 94 | 1008.4 |
| 20260509082952 | 12 | 273 | 0.0 | 3.2 | 0.10 | 0.25 | 0.25 | 94 | 1008.5 |
| 20260509082453 | 12 | 273 | 0.0 | 1.6 | 0.08 | 0.23 | 0.23 | 94 | 1008.5 |
| 20260509082206 | 12 | 273 | 0.0 | 1.6 | 0.08 | 0.23 | 0.23 | 94 | 1008.5 |
| 20260509081529 | 12 | 273 | 0.0 | 1.6 | 0.08 | 0.23 | 0.23 | 94 | 1008.4 |
| 20260509081451 | 12 | 273 | 0.0 | 1.6 | 0.08 | 0.23 | 0.23 | 94 | 1008.5 |
| 20260509080929 | 12 | 273 | 0.0 | 1.6 | 0.05 | 0.20 | 0.20 | 94 | 1008.4 |
| 20260509080428 | 12 | 273 | 0.0 | 1.6 | 0.08 | 0.20 | 0.20 | 94 | 1008.4 |
| 20260509080106 | 12 | 273 | 0.0 | 1.6 | 0.08 | 0.20 | 0.20 | 94 | 1008.3 |
| 20260509075909 | 12 | 273 | 0.0 | 1.6 | 0.08 | 0.20 | 0.20 | 94 | 1008.3 |
| 20260509075350 | 12 | 273 | 0.0 | 1.6 | 0.10 | 0.20 | 0.20 | 94 | 1008.4 |
| 20260509074841 | 12 | 273 | 0.0 | 1.6 | 0.08 | 0.18 | 0.18 | 94 | 1008.3 |
| 20260509074600 | 12 | 273 | 0.0 | 1.6 | 0.08 | 0.18 | 0.18 | 94 | 1008.3 |
| 20260509074523 | 12 | 273 | 0.0 | 1.6 | 0.08 | 0.18 | 0.18 | 94 | 1008.2 |
| 20260509073836 | 12 | 273 | 0.0 | 1.6 | 0.08 | 0.18 | 0.18 | 94 | 1008.2 |
| 20260509073338 | 12 | 273 | 0.0 | 0.0 | 0.05 | 0.15 | 0.18 | 94 | 1008.3 |
| 20260509073002 | 12 | 273 | 0.0 | 0.0 | 0.05 | 0.15 | 0.15 | 94 | 1008.2 |
| 20260509072814 | 12 | 273 | 0.0 | 0.0 | 0.05 | 0.15 | 0.15 | 94 | 1008.3 |
| 20260509072250 | 12 | 273 | 0.0 | 0.0 | 0.05 | 0.15 | 0.15 | 94 | 1008.5 |
| 20260509071734 | 12 | 273 | 0.0 | 0.0 | 0.05 | 0.15 | 0.15 | 94 | 1008.6 |
| 20260509071553 | 12 | 273 | 0.0 | 0.0 | 0.05 | 0.15 | 0.15 | 94 | 1008.5 |
| 20260509071202 | 12 | 273 | 0.0 | 0.0 | 0.08 | 0.15 | 0.15 | 94 | 1008.7 |
| 20260509070702 | 12 | 273 | 0.0 | 0.0 | 0.05 | 0.13 | 0.13 | 94 | 1008.9 |
| 20260509070202 | 12 | 273 | 0.0 | 1.6 | 0.05 | 0.13 | 0.13 | 94 | 1009.0 |
| 20260509070024 | 12 | 273 | 0.0 | 1.6 | 0.05 | 0.13 | 0.13 | 94 | 1008.8 |
| 20260509065652 | 12 | 273 | 0.0 | 3.2 | 0.05 | 0.13 | 0.13 | 94 | 1009.0 |
| 20260509065151 | 12 | 273 | 0.0 | 3.2 | 0.03 | 0.10 | 0.10 | 94 | 1009.0 |
| 20260509064912 | 12 | 273 | 0.0 | 4.8 | 0.03 | 0.10 | 0.10 | 94 | 1009.1 |
| 20260509064509 | 12 | 273 | 0.0 | 4.8 | 0.03 | 0.10 | 0.10 | 94 | 1008.9 |
| 20260509064124 | 12 | 273 | 0.0 | 4.8 | 0.03 | 0.10 | 0.10 | 93 | 1009.1 |
| 20260509063601 | 12 | 273 | 0.0 | 1.6 | 0.05 | 0.10 | 0.10 | 94 | 1009.1 |
| 20260509063035 | 12 | 273 | 0.0 | 3.2 | 0.05 | 0.10 | 0.10 | 93 | 1009.2 |
| 20260509063007 | 12 | 273 | 0.0 | 1.6 | 0.05 | 0.10 | 0.10 | 93 | 1009.0 |
| 20260509062512 | 12 | 273 | 1.6 | 3.2 | 0.05 | 0.10 | 0.10 | 93 | 1009.2 |
| 20260509061944 | 12 | 273 | 1.6 | 4.8 | 0.05 | 0.10 | 0.10 | 93 | 1009.3 |
| 20260509061555 | 12 | 273 | 0.0 | 4.8 | 0.05 | 0.10 | 0.10 | 93 | 1009.0 |
| 20260509061432 | 12 | 273 | 0.0 | 4.8 | 0.03 | 0.08 | 0.08 | 93 | 1009.2 |
| 20260509060935 | 12 | 273 | 0.0 | 1.6 | 0.03 | 0.08 | 0.08 | 93 | 1009.1 |
| 20260509060704 | 12 | 273 | 0.0 | 0.0 | 0.03 | 0.08 | 0.08 | 93 | 1009.1 |
| 20260509060104 | 12 | 273 | 0.0 | 0.0 | 0.03 | 0.08 | 0.08 | 92 | 1008.9 |
| 20260509055910 | 12 | 273 | 0.0 | 3.2 | 0.03 | 0.08 | 0.08 | 93 | 1009.0 |
| 20260509055344 | 12 | 273 | 0.0 | 4.8 | 0.03 | 0.08 | 0.08 | 93 | 1008.9 |
| 20260509054818 | 12 | 273 | 0.0 | 4.8 | 0.03 | 0.08 | 0.08 | 92 | 1008.9 |
| 20260509054258 | 12 | 273 | 1.6 | 4.8 | 0.03 | 0.08 | 0.08 | 92 | 1009.0 |
| 20260509053757 | 12 | 273 | 1.6 | 4.8 | 0.03 | 0.05 | 0.05 | 92 | 1009.0 |
| 20260509053257 | 12 | 273 | 0.0 | 3.2 | 0.03 | 0.05 | 0.05 | 92 | 1009.0 |
| 20260509053023 | 12 | 273 | 0.0 | 3.2 | 0.03 | 0.05 | 0.05 | 92 | 1008.9 |
| 20260509052949 | 12 | 273 | 0.0 | 3.2 | 0.03 | 0.05 | 0.05 | 92 | 1009.1 |
| 20260509052200 | 12 | 273 | 0.0 | 1.6 | 0.03 | 0.05 | 0.05 | 92 | 1009.1 |
| 20260509052152 | 12 | 273 | 0.0 | 4.8 | 0.05 | 0.05 | 0.05 | 92 | 1009.1 |
| 20260509051619 | 12 | 273 | 1.6 | 4.8 | 0.05 | 0.05 | 0.05 | 91 | 1009.2 |
| 20260509051517 | 12 | 273 | 0.0 | 4.8 | 0.05 | 0.05 | 0.05 | 91 | 1009.0 |
| 20260509050839 | 12 | 273 | 1.6 | 4.8 | 0.05 | 0.05 | 0.05 | 91 | 1009.1 |
| 20260509050117 | 12 | 273 | 1.6 | 4.8 | 0.05 | 0.05 | 0.05 | 91 | 1009.1 |
| 20260509050059 | 12 | 273 | 1.6 | 4.8 | 0.05 | 0.05 | 0.05 | 91 | 1009.3 |
| 20260509050039 | 12 | 273 | 0.0 | 4.8 | 0.05 | 0.05 | 0.05 | 91 | 1009.0 |
| 20260509045115 | 12 | 291 | 0.0 | 3.2 | 0.05 | 0.05 | 0.05 | 90 | 1009.3 |
| 20260509044606 | 12 | 291 | 0.0 | 1.6 | 0.05 | 0.05 | 0.05 | 90 | 1009.3 |
| 20260509044516 | 12 | 273 | 0.0 | 1.6 | 0.05 | 0.05 | 0.05 | 90 | 1009.2 |
| 20260509044104 | 12 | 273 | 0.0 | 3.2 | 0.05 | 0.05 | 0.05 | 90 | 1009.4 |
| 20260509044016 | 13 | 273 | 0.0 | 4.8 | 0.03 | 0.03 | 0.03 | 89 | 1009.3 |
| 20260509043052 | 12 | 273 | 0.0 | 4.8 | 0.03 | 0.03 | 0.03 | 89 | 1009.3 |
| 20260509043014 | 13 | 273 | 0.0 | 4.8 | 0.03 | 0.03 | 0.03 | 89 | 1009.4 |
| 20260509042446 | 13 | 273 | 0.0 | 1.6 | 0.03 | 0.03 | 0.03 | 89 | 1009.4 |
| 20260509041921 | 13 | 273 | 0.0 | 3.2 | 0.00 | 0.00 | 0.00 | 88 | 1009.5 |
| 20260509041834 | 13 | 273 | 0.0 | 3.2 | 0.00 | 0.00 | 0.00 | 88 | 1009.6 |
| 20260509041520 | 12 | 273 | 0.0 | 3.2 | 0.00 | 0.00 | 0.00 | 88 | 1009.4 |
| 20260509040850 | 13 | 273 | 0.0 | 3.2 | 0.00 | 0.00 | 0.00 | 88 | 1009.5 |
| 20260509040322 | 13 | 273 | 1.6 | 4.8 | 0.00 | 0.00 | 0.00 | 88 | 1009.5 |
| 20260509040011 | 13 | 273 | 0.0 | 4.8 | 0.00 | 0.00 | 0.00 | 87 | 1009.5 |
| 20260509035820 | 13 | 273 | 1.6 | 4.8 | 0.00 | 0.00 | 0.00 | 87 | 1009.5 |
| 20260509035251 | 13 | 273 | 0.0 | 1.6 | 0.00 | 0.00 | 0.00 | 86 | 1009.6 |
| 20260509034750 | 13 | 273 | 0.0 | 1.6 | 0.00 | 0.00 | 0.00 | 86 | 1009.6 |
| 20260509034515 | 13 | 273 | 0.0 | 1.6 | 0.00 | 0.00 | 0.00 | 85 | 1009.6 |
| 20260509034226 | 13 | 273 | 0.0 | 1.6 | 0.00 | 0.00 | 0.00 | 85 | 1009.6 |
| 20260509033657 | 13 | 273 | 0.0 | 4.8 | 0.00 | 0.00 | 0.00 | 84 | 1009.7 |
| 20260509033154 | 13 | 273 | 0.0 | 4.8 | 0.00 | 0.00 | 0.00 | 84 | 1009.7 |
| 20260509033014 | 13 | 273 | 0.0 | 4.8 | 0.00 | 0.00 | 0.00 | 84 | 1009.7 |
| 20260509032625 | 13 | 273 | 0.0 | 4.8 | 0.00 | 0.00 | 0.00 | 84 | 1009.7 |
| 20260509032351 | 13 | 273 | 0.0 | 4.8 | 0.00 | 0.00 | 0.00 | 83 | 1009.7 |
| 20260509031755 | 13 | 273 | 0.0 | 4.8 | 0.00 | 0.00 | 0.00 | 83 | 1009.7 |
| 20260509031639 | 13 | 291 | 0.0 | 4.8 | 0.00 | 0.00 | 0.00 | 83 | 1009.7 |
| 20260509031506 | 13 | 273 | 1.6 | 3.2 | 0.00 | 0.00 | 0.00 | 83 | 1009.6 |
| 20260509030527 | 13 | 273 | 1.6 | 4.8 | 0.00 | 0.00 | 0.00 | 82 | 1009.8 |
| 20260509030103 | 13 | 273 | 0.0 | 8.0 | 0.00 | 0.00 | 0.00 | 82 | 1009.9 |
| 20260509030025 | 13 | 290 | 1.6 | 8.0 | 0.00 | 0.00 | 0.00 | 82 | 1009.9 |
| 20260509025456 | 13 | 290 | 1.6 | 8.0 | 0.00 | 0.00 | 0.00 | 81 | 1009.8 |
| 20260509024956 | 13 | 289 | 1.6 | 6.4 | 0.00 | 0.00 | 0.00 | 81 | 1009.9 |
| 20260509024556 | 13 | 288 | 0.0 | 4.8 | 0.00 | 0.00 | 0.00 | 81 | 1009.9 |
| 20260509024425 | 13 | 288 | 1.6 | 6.4 | 0.00 | 0.00 | 0.00 | 81 | 1009.9 |
| 20260509023924 | 14 | 288 | 1.6 | 6.4 | 0.00 | 0.00 | 0.00 | 81 | 1009.9 |
| 20260509023357 | 14 | 288 | 3.2 | 8.0 | 0.00 | 0.00 | 0.00 | 80 | 1009.9 |
| 20260509023112 | 14 | 288 | 3.2 | 8.0 | 0.00 | 0.00 | 0.00 | 80 | 1009.8 |
| 20260509023045 | 13 | 288 | 1.6 | 8.0 | 0.00 | 0.00 | 0.00 | 80 | 1009.8 |
| 20260509022350 | 14 | 284 | 1.6 | 8.0 | 0.00 | 0.00 | 0.00 | 78 | 1009.8 |